-> Other stations

1455

Speed(max): 1.1(1.6)knots
Direction:269° ( W)
Temperature: 8.6°C
Arrived: 2026-05-04 06:19:50 CEST

Past data:
hh:mmknots
Dir (°)
°C
06:17 1.1 1.6 W(272) 8.7
06:15 1.1 1.6 W(268) 8.6
06:13 1.1 1.6 W(271) 8.7
06:11 1.1 1.6 W(270) 8.7
06:09 1.6 2.2 W(269) 9.0
06:07 1.6 2.2 W(270) 9.0
06:05 1.6 2.2 W(271) 8.5
06:03 1.1 1.6 W(270) 8.3
06:01 1.1 1.6 W(269) 8.6
05:59 1.1 1.6 W(269) 8.5
05:57 1.1 1.6 W(270) 8.2
05:55 1.1 1.6 W(271) 7.8
05:53 1.1 1.6 W(269) 7.7
05:51 1.1 2.2 W(268) 7.7
15 min. averages:
hh:mmknots
Dir (°)
°C
06:15 1.1 2.2 W(270) 8.7
06:00 1.1 2.2 W(269) 7.9
05:45 1.1 2.2 W(270) 7.8
05:30 0.5 2.2 W(271) 8.1
05:15 0 0 W(271) 8.4
05:00 0 0 W(271) 8.6
04:45 0 0 W(271) 8.9
04:30 0 0 W(271) 9.2
04:15 0 0 W(271) 9.6
04:00 0 0 W(271) 9.7
03:45 0 1.6 W(269) 9.8
03:30 0 1.1 W(270) 9.1
03:15 0 1.1 W(270) 8.8
03:00 0.5 1.6 W(270) 9.0
02:45 0.5 1.6 W(270) 9.1
Stations at HR:
1455
-> Other regions

Desktop view
Data provided by Holfuy.
© Holfuy Weather 2026